Weather History for LATI - January, 2014

Change the Weather History Date:

Wednesday, January 8, 2014

  Actual Average Record
Temperature  
Mean Temperature 48 °F -  
Max Temperature 61 °F 52 °F 66 °F (2001)
Min Temperature 35 °F 35 °F 17 °F (2015)
Degree Days  
Heating Degree Days 17    
Moisture  
Dew Point 41 °F    
Average Humidity 82    
Maximum Humidity 93    
Minimum Humidity 46    
Precipitation  
Precipitation 0.00 in -13.12 in - ()
Sea Level Pressure  
Sea Level Pressure 30.27 in    
Wind  
Wind Speed 3 mph ()    
Max Wind Speed 11 mph    
Max Gust Speed -    
Visibility 3.2 miles    
Events Fog    
Averages and records for this station are not official NWS values.
T = Trace of Precipitation, MM = Missing Value Source: Averaged Metar Reports

Daily Weather History Graph

Daily Weather History Graph

Search for Another Location

Airport or City:

Trip Planner

Search our weather history database for the weather conditions in past years. The results will help you decide how hot, cold, wet, or windy it might be!

Date:

Astronomy

Jan. 08, 2014 Rise Set
Actual Time 7:07 AM CET 4:28 PM CET
Civil Twilight 6:36 AM CET 4:59 PM CET
Nautical Twilight 6:01 AM CET 5:34 PM CET
Astronomical Twilight 5:28 AM CET 6:07 PM CET
Moon 11:13 AM CET (1/8) No Moon Set
Length of Visible Light 10h 23m
Length of Day
9h 21m
First Quarter, 53% of the Moon is Illuminated
Jan 8
First Quarter
Jan 16
Full
Jan 24
Last Quarter
Jan 30
New
Feb 6
First Quarter

Hourly Weather History & Observations

Time (CET) Temp. Windchill Dew Point Humidity Pressure Visibility Wind Dir Wind Speed Gust Speed Precip Events Conditions
12:00 AM 42 °F - 40 °F 91% 30.29 in 1 mi South 4.5 mph - -  
12:20 AM 41.0 °F 38.0 °F 39.2 °F 93% 30.27 in 1.2 mi SSW 4.6 mph - N/A   Mist
12:50 AM 41.0 °F 38.0 °F 39.2 °F 93% 30.27 in 0.9 mi SSE 4.6 mph - N/A   Partly Cloudy
1:00 AM 40 °F - 38 °F 92% 30.30 in 1 mi SE 4.5 mph - -  
1:20 AM 42.8 °F 40.1 °F 41.0 °F 93% 30.27 in 0.7 mi SSE 4.6 mph - N/A   Mist
1:50 AM 41.0 °F - 39.2 °F 93% 30.27 in 0.9 mi Calm Calm - N/A   Mist
2:00 AM 40 °F - 39 °F 93% 30.31 in 2 mi South 2.2 mph - -  
2:20 AM 41.0 °F 39.0 °F 39.2 °F 93% 30.30 in 1.9 mi South 3.5 mph - N/A   Mist
2:50 AM 39.2 °F 37.0 °F 37.4 °F 93% 30.30 in 1.6 mi SE 3.5 mph - N/A   Mist
3:00 AM 39 °F - 37 °F 90% 30.31 in 2 mi Calm Calm - -  
3:20 AM 39.2 °F 37.0 °F 37.4 °F 93% 30.27 in 0.9 mi SSE 3.5 mph - N/A   Mist
3:50 AM 39.2 °F 37.0 °F 37.4 °F 93% 30.27 in 1.2 mi South 3.5 mph - N/A   Mist
4:00 AM 38 °F - 36 °F 88% 30.29 in 0 mi SSW 2.2 mph - -  
4:20 AM 37.4 °F - 35.6 °F 93% 30.27 in 0.3 mi Variable 2.3 mph - N/A Fog Patches of Fog
4:50 AM 37.4 °F 34.9 °F 35.6 °F 93% 30.27 in - ENE 3.5 mph - N/A   Mist
5:00 AM 38 °F - 36 °F 89% 30.29 in 3 mi SSE 2.2 mph - -  
5:20 AM 39.2 °F 37.0 °F 37.4 °F 93% 30.27 in 1.4 mi SSW 3.5 mph - N/A   Mist
5:50 AM 39.2 °F 37.0 °F 37.4 °F 93% 30.27 in 0.3 mi SSW 3.5 mph - N/A   Mist
6:00 AM 37 °F - 36 °F 92% 30.30 in 2 mi South 4.5 mph - -  
6:20 AM 37.4 °F - 35.6 °F 93% 30.27 in 0.7 mi Variable 2.3 mph - N/A   Mist
6:50 AM 39.2 °F - 37.4 °F 93% 30.30 in 0.2 mi East 2.3 mph - N/A Fog Patches of Fog
7:00 AM 37 °F - 35 °F 89% 30.31 in 1 mi Calm Calm - -  
7:20 AM 37.4 °F - 35.6 °F 93% 30.30 in 0.2 mi Calm Calm - N/A Fog Patches of Fog
7:50 AM 37.4 °F 34.9 °F 35.6 °F 93% 30.30 in 0.2 mi SSW 3.5 mph - N/A Fog Patches of Fog
8:00 AM 39 °F - 37 °F 91% 30.32 in 3 mi SSW 2.2 mph - -  
8:20 AM 39.2 °F 35.9 °F 37.4 °F 93% 30.30 in 2.5 mi South 4.6 mph - N/A   Mist
8:50 AM 44.6 °F 43.1 °F 42.8 °F 93% 30.30 in 3.7 mi ESE 3.5 mph - N/A   Unknown
9:00 AM 46 °F - 43 °F 86% 30.32 in 3 mi SE 2.2 mph - -  
9:20 AM 48.2 °F - 42.8 °F 82% 30.30 in 3.1 mi Variable 2.3 mph - N/A   Mist
9:50 AM 51.8 °F - 44.6 °F 76% 30.30 in - Calm Calm - N/A   Clear
10:00 AM 53 °F - 43 °F 61% 30.32 in 8 mi 2.2 mph - -  
10:20 AM 53.6 °F - 42.8 °F 67% 30.30 in - Variable 2.3 mph - N/A   Clear
10:50 AM 55.4 °F - 46.4 °F 72% 30.30 in - Calm Calm - N/A   Clear
11:00 AM 57 °F - 46 °F 57% 30.30 in 9 mi Calm Calm - -  
11:20 AM 57.2 °F - 46.4 °F 67% 30.27 in - Variable 1.2 mph - N/A   Clear
11:50 AM 60.8 °F - 44.6 °F 55% 30.27 in - Calm Calm - N/A   Clear
12:00 PM 59 °F - 44 °F 46% 30.27 in 19 mi NW 4.5 mph - -  
12:20 PM 59.0 °F - 44.6 °F 59% 30.24 in - NW 6.9 mph - N/A   Clear
12:50 PM 60.8 °F - 46.4 °F 59% 30.24 in - NNW 9.2 mph - N/A   Clear
1:00 PM 60 °F - 46 °F 49% 30.26 in 22 mi NNW 11.2 mph - -  
1:20 PM 60.8 °F - 46.4 °F 59% 30.24 in - NNW 9.2 mph - N/A   Clear
1:50 PM 60.8 °F - 46.4 °F 59% 30.24 in 6.2 mi NNW 9.2 mph - N/A   Partly Cloudy
2:00 PM 60 °F - 46 °F 50% 30.25 in 19 mi NNW 6.7 mph - -  
2:20 PM 60.8 °F - 46.4 °F 59% 30.24 in - North 6.9 mph - N/A   Clear
2:50 PM 60.8 °F - 46.4 °F 59% 30.24 in - NNW 6.9 mph - N/A   Clear
3:00 PM 60 °F - 46 °F 50% 30.25 in 22 mi NNW 6.7 mph - -  
3:20 PM 59.0 °F - 48.2 °F 67% 30.24 in - NNW 8.1 mph - N/A   Clear
3:50 PM 57.2 °F - 46.4 °F 67% 30.24 in - NNW 5.8 mph - N/A   Clear
4:00 PM 57 °F - 47 °F 61% 30.25 in 19 mi NNW 6.7 mph - -  
4:20 PM 55.4 °F - 46.4 °F 72% 30.24 in - NNW 6.9 mph - N/A   Clear
4:50 PM 51.8 °F - 46.4 °F 82% 30.24 in - NNW 4.6 mph - N/A   Clear
5:00 PM 51 °F - 46 °F 75% 30.25 in 17 mi NNW 4.5 mph - -  
5:20 PM 51.8 °F - 46.4 °F 82% 30.24 in 6.2 mi NNW 3.5 mph - N/A   Unknown
5:50 PM 51.8 °F - 46.4 °F 82% 30.24 in - North 3.5 mph - N/A   Clear
6:20 PM 48.2 °F - 44.6 °F 87% 30.24 in - Calm Calm - N/A   Clear
6:50 PM 46.4 °F - 44.6 °F 93% 30.24 in - South 1.2 mph - N/A   Clear
7:00 PM 46 °F - 43 °F 84% 30.26 in 2 mi SE 2.2 mph - -  
7:20 PM 44.6 °F 43.1 °F 41.0 °F 87% 30.24 in 3.1 mi SE 3.5 mph - N/A   Mist
7:50 PM 42.8 °F 41.1 °F 41.0 °F 93% 30.24 in 3.1 mi SE 3.5 mph - N/A   Mist
8:00 PM 43 °F - 41 °F 88% 30.26 in 1 mi SSE 2.2 mph - -  
8:20 PM 41.0 °F - 39.2 °F 93% 30.24 in 2.5 mi SSE 2.3 mph - N/A   Mist
8:50 PM 42.8 °F 40.1 °F 41.0 °F 93% 30.24 in 1.9 mi South 4.6 mph - N/A   Mist
9:00 PM 44 °F - 42 °F 92% 30.26 in 1 mi SSE 4.5 mph - -  
9:20 PM 41.0 °F 39.0 °F 39.2 °F 93% 30.24 in 1.9 mi South 3.5 mph - N/A Fog Patches of Fog
9:50 PM 41.0 °F - 39.2 °F 93% 30.24 in 0.5 mi South 2.3 mph - N/A Fog Patches of Fog
10:00 PM 42 °F - 40 °F 88% 30.26 in 0 mi SSE 4.5 mph - -  
10:20 PM 41.0 °F 39.0 °F 39.2 °F 93% 30.24 in 1.2 mi SE 3.5 mph - N/A Fog Patches of Fog
10:50 PM 41.0 °F 39.0 °F 39.2 °F 93% 30.24 in 0.8 mi SE 3.5 mph - N/A Fog Patches of Fog
11:00 PM 40 °F - 38 °F 89% 30.25 in 0 mi SSE 4.5 mph - -  
11:20 PM 42.8 °F 41.1 °F 41.0 °F 93% 30.24 in 0.9 mi South 3.5 mph - N/A Fog Patches of Fog
11:50 PM 42.8 °F 41.1 °F 41.0 °F 93% 30.24 in 1.9 mi South 3.5 mph - N/A Fog Fog